Time,TemperatureF,DewpointF,PressureIn,WindDirection,WindDirectionDegrees,WindSpeedMPH,WindSpeedGustMPH,Humidity,HourlyPrecipIn,Conditions,Clouds,dailyrainin,SoftwareType,DateUTC
2013-01-20 00:04:00,45.0,31.0,29.93,SSE,157,3.0,7.0,57,0.00,,,0.00,,2013-01-20 05:04:00,
2013-01-20 00:12:00,45.0,31.0,29.93,SSE,157,3.0,7.0,57,0.00,,,0.00,,2013-01-20 05:12:00,
2013-01-20 00:23:00,45.0,31.0,29.93,SSE,150,3.0,9.0,57,0.00,,,0.00,,2013-01-20 05:23:00,
2013-01-20 00:33:00,45.0,31.0,29.92,South,185,2.0,9.0,58,0.00,,,0.00,,2013-01-20 05:33:00,
2013-01-20 00:43:00,45.0,31.0,29.92,South,185,2.0,9.0,58,0.00,,,0.00,,2013-01-20 05:43:00,
2013-01-20 00:53:00,45.0,31.0,29.91,WNW,300,2.0,12.0,58,0.00,,,0.00,,2013-01-20 05:53:00,
2013-01-20 01:02:00,44.0,31.0,29.90,SE,141,2.0,8.0,59,0.00,,,0.00,,2013-01-20 06:02:00,
2013-01-20 01:12:00,44.0,31.0,29.90,SE,141,2.0,8.0,59,0.00,,,0.00,,2013-01-20 06:12:00,
2013-01-20 01:22:00,44.0,31.0,29.89,South,171,3.0,8.0,60,0.00,,,0.00,,2013-01-20 06:22:00,
2013-01-20 01:33:00,43.0,30.0,29.87,SE,125,2.0,7.0,61,0.00,,,0.00,,2013-01-20 06:33:00,
2013-01-20 01:43:00,43.0,30.0,29.87,SE,125,2.0,7.0,61,0.00,,,0.00,,2013-01-20 06:43:00,
2013-01-20 01:52:00,43.0,30.0,29.87,South,177,2.0,9.0,61,0.00,,,0.00,,2013-01-20 06:52:00,
2013-01-20 02:02:00,43.0,31.0,29.87,ESE,118,2.0,7.0,62,0.00,,,0.00,,2013-01-20 07:02:00,
2013-01-20 02:12:00,43.0,31.0,29.87,ESE,118,2.0,7.0,62,0.00,,,0.00,,2013-01-20 07:12:00,
2013-01-20 02:22:00,42.0,30.0,29.86,WSW,247,2.0,6.0,63,0.00,,,0.00,,2013-01-20 07:22:00,
2013-01-20 02:32:00,42.0,30.0,29.86,SW,214,1.0,9.0,63,0.00,,,0.00,,2013-01-20 07:32:00,
2013-01-20 02:42:00,42.0,30.0,29.86,SW,214,1.0,9.0,63,0.00,,,0.00,,2013-01-20 07:42:00,
2013-01-20 02:52:00,42.0,31.0,29.85,SSE,158,2.0,7.0,64,0.00,,,0.00,,2013-01-20 07:52:00,
2013-01-20 03:02:00,42.0,31.0,29.86,WNW,299,3.0,8.0,64,0.00,,,0.00,,2013-01-20 08:02:00,
2013-01-20 03:12:00,42.0,31.0,29.86,WNW,299,3.0,8.0,64,0.00,,,0.00,,2013-01-20 08:12:00,
2013-01-20 03:22:00,42.0,31.0,29.85,SSW,209,1.0,9.0,64,0.00,,,0.00,,2013-01-20 08:22:00,
2013-01-20 03:32:00,42.0,31.0,29.84,East,93,0.0,8.0,65,0.00,,,0.00,,2013-01-20 08:32:00,
2013-01-20 03:42:00,42.0,31.0,29.84,East,93,0.0,8.0,65,0.00,,,0.00,,2013-01-20 08:42:00,
2013-01-20 03:52:00,42.0,31.0,29.84,SSE,150,2.0,9.0,65,0.00,,,0.00,,2013-01-20 08:52:00,
2013-01-20 04:02:00,42.0,31.0,29.83,ESE,106,2.0,8.0,65,0.00,,,0.00,,2013-01-20 09:02:00,
2013-01-20 04:12:00,42.0,31.0,29.83,ESE,106,2.0,8.0,65,0.00,,,0.00,,2013-01-20 09:12:00,
2013-01-20 04:22:00,42.0,31.0,29.83,SSW,204,1.0,6.0,65,0.00,,,0.00,,2013-01-20 09:22:00,
2013-01-20 04:33:00,42.0,31.0,29.82,South,191,2.0,13.0,66,0.00,,,0.00,,2013-01-20 09:33:00,
2013-01-20 04:42:00,42.0,31.0,29.82,South,191,2.0,13.0,66,0.00,,,0.00,,2013-01-20 09:42:00,
2013-01-20 04:52:00,42.0,31.0,29.81,South,183,0.0,10.0,66,0.00,,,0.00,,2013-01-20 09:52:00,
2013-01-20 05:03:00,42.0,31.0,29.80,SE,138,2.0,5.0,66,0.00,,,0.00,,2013-01-20 10:03:00,
2013-01-20 05:12:00,42.0,31.0,29.80,SE,138,2.0,5.0,66,0.00,,,0.00,,2013-01-20 10:12:00,
2013-01-20 05:23:00,42.0,31.0,29.79,SSE,163,1.0,12.0,66,0.00,,,0.00,,2013-01-20 10:23:00,
2013-01-20 05:32:00,41.0,31.0,29.78,SSW,201,1.0,9.0,66,0.00,,,0.00,,2013-01-20 10:32:00,
2013-01-20 05:42:00,41.0,31.0,29.78,SSW,201,1.0,9.0,66,0.00,,,0.00,,2013-01-20 10:42:00,
2013-01-20 05:52:00,41.0,31.0,29.78,South,191,4.0,12.0,66,0.00,,,0.00,,2013-01-20 10:52:00,
2013-01-20 06:03:00,41.0,31.0,29.77,SE,129,2.0,7.0,66,0.00,,,0.00,,2013-01-20 11:03:00,
2013-01-20 06:12:00,41.0,31.0,29.77,SE,129,2.0,7.0,66,0.00,,,0.00,,2013-01-20 11:12:00,
2013-01-20 06:22:00,41.0,31.0,29.77,East,94,3.0,7.0,66,0.00,,,0.00,,2013-01-20 11:22:00,
2013-01-20 06:33:00,41.0,31.0,29.77,SSE,165,2.0,9.0,66,0.00,,,0.00,,2013-01-20 11:33:00,
2013-01-20 06:43:00,41.0,31.0,29.77,SSE,165,2.0,9.0,66,0.00,,,0.00,,2013-01-20 11:43:00,
2013-01-20 06:53:00,41.0,31.0,29.76,SW,219,1.0,10.0,66,0.00,,,0.00,,2013-01-20 11:53:00,
2013-01-20 07:03:00,41.0,31.0,29.75,SE,125,1.0,9.0,66,0.00,,,0.00,,2013-01-20 12:03:00,
2013-01-20 07:12:00,41.0,31.0,29.75,SE,125,1.0,9.0,66,0.00,,,0.00,,2013-01-20 12:12:00,
2013-01-20 07:23:00,41.0,31.0,29.75,SE,124,2.0,10.0,66,0.00,,,0.00,,2013-01-20 12:23:00,
2013-01-20 07:33:00,42.0,31.0,29.75,SSW,198,2.0,7.0,65,0.00,,,0.00,,2013-01-20 12:33:00,
2013-01-20 07:43:00,42.0,31.0,29.75,SSW,198,2.0,7.0,65,0.00,,,0.00,,2013-01-20 12:43:00,
2013-01-20 07:52:00,41.0,30.0,29.75,South,182,2.0,8.0,65,0.00,,,0.00,,2013-01-20 12:52:00,
2013-01-20 08:03:00,42.0,31.0,29.74,WSW,244,5.0,12.0,65,0.00,,,0.00,,2013-01-20 13:03:00,
2013-01-20 08:12:00,42.0,31.0,29.74,WSW,244,5.0,12.0,65,0.00,,,0.00,,2013-01-20 13:12:00,
2013-01-20 08:33:00,42.0,31.0,29.74,SSW,197,3.0,9.0,64,0.00,,,0.00,,2013-01-20 13:33:00,
2013-01-20 08:43:00,42.0,31.0,29.74,SSW,197,3.0,9.0,64,0.00,,,0.00,,2013-01-20 13:43:00,
2013-01-20 08:52:00,43.0,31.0,29.74,SW,218,4.0,10.0,63,0.00,,,0.00,,2013-01-20 13:52:00,
2013-01-20 09:03:00,44.0,31.0,29.75,SE,127,2.0,13.0,61,0.00,,,0.00,,2013-01-20 14:03:00,
2013-01-20 09:12:00,44.0,31.0,29.75,SE,127,2.0,13.0,61,0.00,,,0.00,,2013-01-20 14:12:00,
2013-01-20 09:23:00,44.0,31.0,29.75,WSW,238,3.0,9.0,60,0.00,,,0.00,,2013-01-20 14:23:00,
2013-01-20 09:33:00,46.0,32.0,29.75,South,175,3.0,8.0,57,0.00,,,0.00,,2013-01-20 14:33:00,
2013-01-20 09:43:00,46.0,32.0,29.75,South,175,3.0,8.0,57,0.00,,,0.00,,2013-01-20 14:43:00,
2013-01-20 09:53:00,47.0,32.0,29.75,SSE,148,2.0,9.0,56,0.00,,,0.00,,2013-01-20 14:53:00,
2013-01-20 10:04:00,48.0,32.0,29.76,SSW,195,3.0,9.0,53,0.00,,,0.00,,2013-01-20 15:04:00,
2013-01-20 10:12:00,48.0,32.0,29.76,SSW,195,3.0,9.0,53,0.00,,,0.00,,2013-01-20 15:12:00,
2013-01-20 10:23:00,49.0,32.0,29.76,South,180,2.0,12.0,52,0.00,,,0.00,,2013-01-20 15:23:00,
2013-01-20 10:33:00,51.0,33.0,29.75,SE,129,4.0,12.0,49,0.00,,,0.00,,2013-01-20 15:33:00,
2013-01-20 10:42:00,51.0,33.0,29.75,SE,129,4.0,12.0,49,0.00,,,0.00,,2013-01-20 15:42:00,
2013-01-20 10:53:00,51.0,31.0,29.75,SE,130,3.0,10.0,47,0.00,,,0.00,,2013-01-20 15:53:00,
2013-01-20 11:03:00,52.0,32.0,29.74,SSW,201,3.0,12.0,46,0.00,,,0.00,,2013-01-20 16:03:00,
2013-01-20 11:12:00,52.0,32.0,29.74,SSW,201,3.0,12.0,46,0.00,,,0.00,,2013-01-20 16:12:00,
2013-01-20 11:23:00,53.0,32.0,29.73,South,191,5.0,13.0,45,0.00,,,0.00,,2013-01-20 16:23:00,
2013-01-20 11:33:00,54.0,33.0,29.72,SW,217,3.0,13.0,44,0.00,,,0.00,,2013-01-20 16:33:00,
2013-01-20 11:43:00,54.0,33.0,29.72,SW,217,3.0,13.0,44,0.00,,,0.00,,2013-01-20 16:43:00,
2013-01-20 11:52:00,54.0,32.0,29.72,SSW,202,5.0,14.0,43,0.00,,,0.00,,2013-01-20 16:52:00,
2013-01-20 12:03:00,54.0,32.0,29.71,South,185,7.0,26.0,43,0.00,,,0.00,,2013-01-20 17:03:00,
2013-01-20 12:13:00,54.0,32.0,29.71,South,185,7.0,26.0,43,0.00,,,0.00,,2013-01-20 17:13:00,
2013-01-20 12:22:00,54.0,32.0,29.70,South,175,6.0,15.0,43,0.00,,,0.00,,2013-01-20 17:22:00,
2013-01-20 12:33:00,55.0,32.0,29.70,SSW,212,3.0,13.0,42,0.00,,,0.00,,2013-01-20 17:33:00,
2013-01-20 12:42:00,55.0,32.0,29.70,SSW,212,3.0,13.0,42,0.00,,,0.00,,2013-01-20 17:42:00,
2013-01-20 12:52:00,55.0,32.0,29.69,WSW,238,5.0,12.0,41,0.00,,,0.00,,2013-01-20 17:52:00,
2013-01-20 13:03:00,54.0,29.0,29.69,SSW,204,5.0,13.0,38,0.00,,,0.00,,2013-01-20 18:03:00,
2013-01-20 13:13:00,54.0,29.0,29.69,SSW,204,5.0,13.0,38,0.00,,,0.00,,2013-01-20 18:13:00,
2013-01-20 13:23:00,54.0,29.0,29.69,SW,222,3.0,22.0,38,0.00,,,0.00,,2013-01-20 18:23:00,
2013-01-20 13:33:00,54.0,28.0,29.69,SSW,195,5.0,14.0,37,0.00,,,0.00,,2013-01-20 18:33:00,
2013-01-20 13:43:00,54.0,28.0,29.69,SSW,195,5.0,14.0,37,0.00,,,0.00,,2013-01-20 18:43:00,
2013-01-20 13:53:00,54.0,28.0,29.69,SE,130,2.0,12.0,36,0.00,,,0.00,,2013-01-20 18:53:00,
2013-01-20 14:03:00,53.0,27.0,29.70,SW,231,3.0,15.0,37,0.00,,,0.00,,2013-01-20 19:03:00,
2013-01-20 14:12:00,53.0,27.0,29.70,SW,231,3.0,15.0,37,0.00,,,0.00,,2013-01-20 19:12:00,
2013-01-20 14:22:00,53.0,27.0,29.70,SSW,211,3.0,8.0,37,0.00,,,0.00,,2013-01-20 19:22:00,
2013-01-20 14:33:00,53.0,27.0,29.71,North,9,2.0,8.0,37,0.00,,,0.00,,2013-01-20 19:33:00,
2013-01-20 14:43:00,53.0,27.0,29.71,North,9,2.0,8.0,37,0.00,,,0.00,,2013-01-20 19:43:00,
2013-01-20 14:52:00,53.0,27.0,29.71,South,185,3.0,10.0,37,0.00,,,0.00,,2013-01-20 19:52:00,
2013-01-20 15:03:00,53.0,24.0,29.72,South,185,5.0,16.0,32,0.00,,,0.00,,2013-01-20 20:03:00,
2013-01-20 15:12:00,53.0,24.0,29.72,South,185,5.0,16.0,32,0.00,,,0.00,,2013-01-20 20:12:00,
2013-01-20 15:23:00,53.0,21.0,29.74,East,84,4.0,8.0,28,0.00,,,0.00,,2013-01-20 20:23:00,
2013-01-20 15:33:00,52.0,16.0,29.75,WSW,242,3.0,12.0,24,0.00,,,0.00,,2013-01-20 20:33:00,
2013-01-20 15:42:00,52.0,16.0,29.75,WSW,242,3.0,12.0,24,0.00,,,0.00,,2013-01-20 20:42:00,
2013-01-20 15:53:00,52.0,16.0,29.76,SSW,192,5.0,15.0,24,0.00,,,0.00,,2013-01-20 20:53:00,
2013-01-20 16:04:00,51.0,16.0,29.77,WSW,243,2.0,8.0,25,0.00,,,0.00,,2013-01-20 21:04:00,
2013-01-20 16:13:00,51.0,16.0,29.77,WSW,243,2.0,8.0,25,0.00,,,0.00,,2013-01-20 21:13:00,
2013-01-20 16:23:00,51.0,16.0,29.77,South,185,6.0,18.0,24,0.00,,,0.00,,2013-01-20 21:23:00,
2013-01-20 16:33:00,50.0,16.0,29.78,SSW,193,5.0,15.0,25,0.00,,,0.00,,2013-01-20 21:33:00,
2013-01-20 16:43:00,50.0,16.0,29.78,SSW,193,5.0,15.0,25,0.00,,,0.00,,2013-01-20 21:43:00,
2013-01-20 16:53:00,49.0,16.0,29.80,West,273,3.0,12.0,26,0.00,,,0.00,,2013-01-20 21:53:00,
2013-01-20 17:03:00,48.0,16.0,29.81,SSW,193,3.0,12.0,27,0.00,,,0.00,,2013-01-20 22:03:00,
2013-01-20 17:13:00,48.0,16.0,29.81,SSW,193,3.0,12.0,27,0.00,,,0.00,,2013-01-20 22:13:00,
2013-01-20 17:23:00,48.0,16.0,29.81,West,270,3.0,8.0,28,0.00,,,0.00,,2013-01-20 22:23:00,
2013-01-20 17:33:00,47.0,16.0,29.83,SW,228,4.0,8.0,28,0.00,,,0.00,,2013-01-20 22:33:00,
2013-01-20 17:43:00,47.0,16.0,29.83,SW,228,4.0,8.0,28,0.00,,,0.00,,2013-01-20 22:43:00,
2013-01-20 17:52:00,47.0,16.0,29.84,SSE,153,3.0,13.0,28,0.00,,,0.00,,2013-01-20 22:52:00,
2013-01-20 18:03:00,46.0,17.0,29.85,SSE,165,1.0,22.0,31,0.00,,,0.00,,2013-01-20 23:03:00,
2013-01-20 18:13:00,46.0,17.0,29.85,SSE,165,1.0,22.0,31,0.00,,,0.00,,2013-01-20 23:13:00,
2013-01-20 18:23:00,45.0,17.0,29.86,South,175,2.0,10.0,32,0.00,,,0.00,,2013-01-20 23:23:00,
2013-01-20 18:33:00,45.0,19.0,29.88,East,83,1.0,7.0,35,0.00,,,0.00,,2013-01-20 23:33:00,
2013-01-20 18:43:00,45.0,19.0,29.88,East,83,1.0,7.0,35,0.00,,,0.00,,2013-01-20 23:43:00,
2013-01-20 18:53:00,44.0,20.0,29.89,SW,216,1.0,6.0,38,0.00,,,0.00,,2013-01-20 23:53:00,
2013-01-20 19:03:00,42.0,19.0,29.90,SSW,210,3.0,8.0,40,0.00,,,0.00,,2013-01-21 00:03:00,
2013-01-20 19:13:00,42.0,19.0,29.90,SSW,210,3.0,8.0,40,0.00,,,0.00,,2013-01-21 00:13:00,
2013-01-20 19:23:00,42.0,20.0,29.90,East,83,2.0,8.0,41,0.00,,,0.00,,2013-01-21 00:23:00,
2013-01-20 19:33:00,41.0,20.0,29.91,North,355,1.0,9.0,43,0.00,,,0.00,,2013-01-21 00:33:00,
2013-01-20 19:43:00,41.0,20.0,29.91,North,355,1.0,9.0,43,0.00,,,0.00,,2013-01-21 00:43:00,
2013-01-20 19:53:00,40.0,19.0,29.92,South,175,2.0,7.0,42,0.00,,,0.00,,2013-01-21 00:53:00,
2013-01-20 20:03:00,39.0,19.0,29.95,ESE,120,2.0,9.0,44,0.00,,,0.00,,2013-01-21 01:03:00,
2013-01-20 20:13:00,39.0,19.0,29.95,ESE,120,2.0,9.0,44,0.00,,,0.00,,2013-01-21 01:13:00,
2013-01-20 20:23:00,39.0,18.0,29.94,SSE,155,2.0,7.0,42,0.00,,,0.00,,2013-01-21 01:23:00,
2013-01-20 20:33:00,38.0,18.0,29.95,North,11,2.0,6.0,43,0.00,,,0.00,,2013-01-21 01:33:00,
2013-01-20 20:43:00,38.0,18.0,29.95,North,11,2.0,6.0,43,0.00,,,0.00,,2013-01-21 01:43:00,
2013-01-20 20:53:00,38.0,18.0,29.96,NE,50,1.0,7.0,43,0.00,,,0.00,,2013-01-21 01:53:00,
2013-01-20 21:03:00,37.0,17.0,29.97,NNW,332,1.0,3.0,43,0.00,,,0.00,,2013-01-21 02:03:00,
2013-01-20 21:12:00,37.0,17.0,29.97,NNW,332,1.0,3.0,43,0.00,,,0.00,,2013-01-21 02:12:00,
2013-01-20 21:23:00,36.0,15.0,29.98,East,91,2.0,8.0,42,0.00,,,0.00,,2013-01-21 02:23:00,
2013-01-20 21:33:00,36.0,16.0,29.98,NW,315,2.0,9.0,43,0.00,,,0.00,,2013-01-21 02:33:00,
2013-01-20 21:43:00,36.0,16.0,29.98,NW,315,2.0,9.0,43,0.00,,,0.00,,2013-01-21 02:43:00,
2013-01-20 21:53:00,36.0,16.0,29.98,SW,227,1.0,8.0,44,0.00,,,0.00,,2013-01-21 02:53:00,
2013-01-20 22:03:00,35.0,15.0,30.00,WSW,257,2.0,8.0,44,0.00,,,0.00,,2013-01-21 03:03:00,
2013-01-20 22:13:00,35.0,15.0,30.00,WSW,257,2.0,8.0,44,0.00,,,0.00,,2013-01-21 03:13:00,
2013-01-20 22:23:00,34.0,14.0,29.99,SW,216,2.0,8.0,44,0.00,,,0.00,,2013-01-21 03:23:00,
2013-01-20 22:33:00,34.0,15.0,30.01,North,1,3.0,10.0,45,0.00,,,0.00,,2013-01-21 03:33:00,
2013-01-20 22:43:00,34.0,15.0,30.01,North,1,3.0,10.0,45,0.00,,,0.00,,2013-01-21 03:43:00,
2013-01-20 22:53:00,34.0,15.0,30.01,WNW,297,2.0,6.0,46,0.00,,,0.00,,2013-01-21 03:53:00,
2013-01-20 23:03:00,33.0,15.0,30.02,NNE,26,0.0,6.0,46,0.00,,,0.00,,2013-01-21 04:03:00,
2013-01-20 23:13:00,33.0,15.0,30.02,NNE,26,0.0,6.0,46,0.00,,,0.00,,2013-01-21 04:13:00,
2013-01-20 23:23:00,33.0,15.0,30.02,WNW,288,1.0,6.0,46,0.00,,,0.00,,2013-01-21 04:23:00,
2013-01-20 23:33:00,32.0,14.0,30.03,South,188,1.0,7.0,46,0.00,,,0.00,,2013-01-21 04:33:00,
2013-01-20 23:43:00,32.0,14.0,30.03,South,188,1.0,7.0,46,0.00,,,0.00,,2013-01-21 04:43:00,
2013-01-20 23:53:00,31.0,12.0,30.04,NNW,339,3.0,8.0,45,0.00,,,0.00,,2013-01-21 04:53:00,